Satellite-Ground Cal/Val Region Overpasses Predictions

Prediction of Satellite NPP Overpassing Cal/Val Region: PacNW

Region Location: (Latitude: 10.00, Longitude: 139.50) to (Latitude: 22.70, Longitude: 165.60).

Table of predicted overpasses for the next 14.0 days since TLE Epoch: 9/24/2023
Interval Starting Time Starting Location Ending Time Ending Location
1 09/24/2023 02:52:54 ( 10.03, 156.71) 09/24/2023 02:56:29 ( 22.65, 153.71)
2 09/24/2023 15:24:47 ( 22.65, 153.93) 09/24/2023 15:28:22 ( 10.03, 150.93)
3 09/25/2023 02:33:51 ( 10.01, 161.47) 09/25/2023 02:37:27 ( 22.69, 158.46)
4 09/25/2023 15:05:44 ( 22.68, 158.69) 09/25/2023 15:09:19 ( 10.06, 155.70)
5 09/26/2023 02:15:35 ( 12.81, 165.59) 09/26/2023 02:18:23 ( 22.67, 163.23)
6 09/26/2023 03:56:18 ( 10.06, 140.85) 09/26/2023 03:57:57 ( 15.87, 139.50)
7 09/26/2023 14:46:40 ( 22.70, 163.46) 09/26/2023 14:50:16 ( 10.02, 160.45)
8 09/27/2023 03:37:15 ( 10.04, 145.61) 09/27/2023 03:40:50 ( 22.66, 142.62)
9 09/27/2023 14:30:45 ( 11.68, 165.59) 09/27/2023 14:31:13 ( 10.04, 165.21)
10 09/27/2023 16:09:08 ( 22.65, 142.83) 09/27/2023 16:12:43 ( 10.03, 139.84)
11 09/28/2023 03:18:12 ( 10.02, 150.38) 09/28/2023 03:21:47 ( 22.64, 147.38)
12 09/28/2023 15:50:04 ( 22.66, 147.60) 09/28/2023 15:53:39 ( 10.04, 144.60)
13 09/29/2023 02:59:08 ( 10.00, 155.14) 09/29/2023 03:02:44 ( 22.68, 152.13)
14 09/29/2023 15:31:01 ( 22.68, 152.36) 09/29/2023 15:34:37 ( 10.00, 149.35)
15 09/30/2023 02:40:06 ( 10.05, 159.90) 09/30/2023 02:43:41 ( 22.67, 156.90)
16 09/30/2023 15:11:57 ( 22.70, 157.13) 09/30/2023 15:15:33 ( 10.02, 154.12)
17 10/01/2023 02:21:02 ( 10.03, 164.66) 10/01/2023 02:24:37 ( 22.66, 161.66)
18 10/01/2023 14:52:55 ( 22.65, 161.88) 10/01/2023 14:56:30 ( 10.03, 158.88)
19 10/02/2023 03:43:29 ( 10.03, 144.05) 10/02/2023 03:47:04 ( 22.66, 141.05)
20 10/02/2023 14:35:04 ( 18.38, 165.59) 10/02/2023 14:37:26 ( 10.04, 163.65)
21 10/02/2023 16:15:21 ( 22.65, 141.27) 10/02/2023 16:17:25 ( 15.38, 139.51)
22 10/03/2023 03:24:25 ( 10.02, 148.81) 10/03/2023 03:28:00 ( 22.65, 145.81)
23 10/03/2023 15:56:18 ( 22.66, 146.03) 10/03/2023 15:59:53 ( 10.04, 143.03)
24 10/04/2023 03:05:22 ( 10.01, 153.57) 10/04/2023 03:08:58 ( 22.70, 150.56)
25 10/04/2023 15:37:14 ( 22.67, 150.79) 10/04/2023 15:40:49 ( 10.05, 147.80)
26 10/05/2023 02:46:18 ( 10.01, 158.34) 10/05/2023 02:49:54 ( 22.69, 155.33)
27 10/05/2023 15:18:11 ( 22.68, 155.56) 10/05/2023 15:21:46 ( 10.06, 152.56)
28 10/06/2023 02:27:15 ( 10.00, 163.10) 10/06/2023 02:30:51 ( 22.68, 160.09)
29 10/06/2023 14:59:08 ( 22.68, 160.32) 10/06/2023 15:02:44 ( 10.01, 157.31)
30 10/07/2023 02:10:56 ( 19.69, 165.59) 10/07/2023 02:11:47 ( 22.68, 164.85)
31 10/07/2023 03:49:41 ( 10.01, 142.49) 10/07/2023 03:53:15 ( 22.57, 139.50)
32 10/07/2023 14:40:04 ( 22.69, 165.08) 10/07/2023 14:43:40 ( 10.01, 162.07)
